Погода в Змеевке

Россия / Пермский край     57°09′58″N   54°56′06″E
темп.,
°C
ветер,
м/с
пор.,
м/с
влажн.,
%
обл.,
%
осадки,
мм/ч
давл.,
гПа
погр.,
м
5 августа, чт
чт523:00+19ююз499094 1.8 1010177
02:00+17зюз35938 1.1 1009100
05:00+16зсз269846 1.1 1009225
08:00+17сз2292100 0.8 1010327
11:00+20сз5680100 0.8 1010769
14:00+24ссз565732 0.0 10101415
17:00+23ссз675646 0.0 10111529
20:00+20с36692 0.1 1012517
6 августа, пт
пт623:00+15ссз25920 0.1 1013112
02:00+14ссз22950 0.0 101341
05:00+13сз24942 0.0 101485
08:00+15ссз4106860 0.0 1015380
11:00+19с574620 0.0 10151104
14:00+21ссз67394 0.0 10151642
17:00+22ссз57400 0.0 10151804
20:00+18с37570 0.0 1016259
7 августа, сб
сб723:00+13ссз22692 0.0 101721
02:00+12сз2277100 0.0 101717
05:00+11ссз2283100 0.0 101833
08:00+14с3667100 0.0 1018298
11:00+17ссз4654100 0.0 1018868
14:00+18сз5749100 0.0 10181430
17:00+19сз5748100 0.0 10181691
20:00+17зсз3764100 0.0 1017216
8 августа, вс
вс823:00+13ссз22765 0.0 101828
02:00+11с228018 0.0 101913
05:00+9ссз22880 0.0 102012
08:00+13с24744 0.0 1021235
11:00+18ссз46525 0.0 1021999
14:00+21ссз46425 0.0 10201310
17:00+22ссз45405 0.0 10201435
20:00+18с23595 0.0 102041
9 августа, пн
пн923:00+13с22698 0.0 102111
02:00+11св118710 0.0 102110
05:00+11с119217 0.0 102210
08:00+14ссв228098 0.0 1022187
11:00+19ссв236196 0.0 1021754
14:00+22ссз2349100 0.0 10211201
17:00+22ссз2248100 0.0 10201069
20:00+19с1163100 0.0 102011